Location: Allen Lane School
(37.8198°N, 89.7382°W)
Time: 23:19:01
(UTC+00:00)

N. Korean satellite - Pass Details

Date: 08 December 2022
Orbit: 407 x 442 km, 97.3° (Epoch: 04 February)

Event Time Altitude Azimuth Distance (km) Brightness Sun altitude
Rises 11:47:39 0° 360° (N) 2,493 10.0 -14.3°
Reaches altitude 10° 11:49:52 10° 349° (N) 1,605 8.9 -13.9°
Maximum altitude 11:52:54 29° 288° (WNW) 851 7.2 -13.3°
Drops below altitude 10° 11:55:52 10° 226° (SW) 1,567 8.9 -12.8°
Sets 11:58:01 0° 214° (SW) 2,420 10.0 -12.4°
